Current weather by "City, St" or "zip code"  
 

Current Conditions: Albertville, Albertville Municipal Airport, AL

Overcast


59.0 F

Last Updated on Oct 24 2020, 8:55 pm CDT
Humidity: 100%
Wind Speed: NW 4.6 mph
Barometer 29.97 in
Dewpoint: 59.0 F
Visibility: 0.25 mi
Precip: --
Heat Index: NA
Wind Chill: 59 F
Current conditions at:

Albertville, Albertville Municipal Airport, AL (K8A0)

Lat: 34.22889 Lon: 86.25556

Local Radar Image active severe weather and emergency alerts image image weather storm and storm spotter reports image weather observation monitoring service image
Local
Radar
Active
Alerts
Storm Reports Obs
Monitoring

Sign-up For Email & Text Message Weather Alert Notification Services



Advertise Here

Observation History for Albertville, Albertville Municipal Airport, AL


Time Wind
(mph)
Vis
(mi)
Weather Precip (in) Temperature (F) Relative
Humidity
Wind
Chill
(F)
Heat
Index
(F)
Pressure
Air Dwpt altimeter
(in)
sea level
(mb)
Rmks
8:55 pm CDT NW 4.6 0.25 Overcast -- 59.0 59.0 100% 59 NA 29.97 M
7:55 pm CDT N 4.6 0.50 Overcast -- 59.0 59.0 100% 59 NA 29.96 M
6:55 pm CDT N 5.8 1.25 Overcast -- 61.0 59.0 94% 61 NA 29.96 M
5:55 pm CDT N 8.1 4.00 Overcast -- 63.0 60.8 94% 63 NA 29.94 M
4:55 pm CDT N 0.0 10.00 Partly Cloudy -- 64.0 62.6 94% NA NA 29.92 M
3:55 pm CDT N 5.8 7.00 Overcast -- 66.0 64.4 94% NA NA 29.92 M
3:35 pm CDT E 3.5 7.00 Mostly Cloudy -- 66.0 64.4 94% NA NA 29.91 M
2:55 pm CDT N 0.0 7.00 Overcast -- 64.0 64.4 100% NA NA 29.93 M
1:55 pm CDT SE 3.5 7.00 Overcast -- 64.0 64.4 100% NA NA 29.95 M
1:35 pm CDT SE 3.5 7.00 Overcast -- 64.0 64.4 100% NA NA 29.97 M
12:55 pm CDT N 0.0 7.00 Overcast -- 64.0 64.4 100% NA NA 30.00 M
11:55 am CDT N 0.0 4.00 Overcast -- 64.0 64.4 100% NA NA 30.03 M
10:55 am CDT SW 3.5 2.50 Overcast -- 64.0 62.6 94% NA NA 30.06 M
10:35 am CDT N 0.0 4.00 Overcast -- 64.0 64.4 100% NA NA 30.05 M
9:55 am CDT N 0.0 7.00 Overcast -- 64.0 62.6 94% NA NA 30.05 M
8:55 am CDT N 0.0 10.00 Mostly Cloudy -- 64.0 62.6 94% NA NA 30.05 M
8:35 am CDT NE 3.5 7.00 Mostly Cloudy -- 64.0 62.6 94% NA NA 30.04 M
7:55 am CDT N 0.0 7.00 Mostly Cloudy -- 64.0 62.6 94% NA NA 30.03 M
6:55 am CDT N 3.5 10.00 Mostly Cloudy -- 64.0 62.6 94% NA NA 30.02 M
5:55 am CDT NE 3.5 10.00 Partly Cloudy -- 64.0 62.6 94% NA NA 30.03 M
4:55 am CDT N 0.0 10.00 Mostly Cloudy -- 64.0 62.6 94% NA NA 30.03 M
3:55 am CDT NE 6.9 10.00 Overcast -- 66.0 62.6 88% NA NA 30.04 M
2:55 am CDT NE 5.8 10.00 Mostly Cloudy -- 64.0 62.6 94% NA NA 30.04 M
1:55 am CDT N 0.0 10.00 Mostly Cloudy -- 64.0 62.6 94% NA NA 30.05 M

Regional Weather Observation


Folsom Field Airport, AL (K3A1)

Partly Cloudy
82.0 F

Redstone Airfield, AL (KHUA)

Fog/Mist
55.0 F

Huntsville, Huntsville International / Jones Field, AL (KHSV)

Fog/Mist
56.0 F

Scottsboro Municipal Airport, AL (K4A6)

Overcast
64.0 F

Huntsville, Madison County Executive Airport, AL (KMDQ)

Fog/Mist
56.0 F

Decatur, Pryor Field, AL (KDCU)

Overcast
55.0 F